Location: Roland
(31.1349°N, 85.4372°W)
Time: 21:44:28
(UTC+00:00)

Tiros 1 - Pass Details

Date: 27 April 2021
Orbit: 630 x 664 km, 48.4° (Epoch: 05 May)

Event Time Altitude Azimuth Distance (km) Brightness Sun altitude
Exits shadow 10:45:22 - 218° (SW) 3,004 10.1 -4.0°
Rises 10:45:28 0° 218° (SW) 2,961 10.0 -3.9°
Reaches altitude 10° 10:47:50 10° 215° (SW) 2,048 9.3 -3.5°
Maximum altitude 10:52:29 59° 136° (SE) 747 7.7 -2.5°
Drops below altitude 10° 10:57:06 10° 57° (ENE) 2,035 11.4 -1.6°
Sets 10:59:26 0° 53° (NE) 2,941 12.2 -1.1°
